Time,TemperatureF,DewpointF,PressureIn,WindDirection,WindDirectionDegrees,WindSpeedMPH,WindSpeedGustMPH,Humidity,HourlyPrecipIn,Conditions,Clouds,dailyrainin,SoftwareType,DateUTC
2013-07-07 00:00:00,75.5,73.3,30.15,WNW,293,2.0,-999.0,93,0.00,,,0.00,Wunderground v.1.15,2013-07-07 04:00:00,
2013-07-07 00:05:00,75.5,73.3,30.15,WNW,293,2.0,-999.0,93,0.00,,,0.00,Wunderground v.1.15,2013-07-07 04:05:00,
2013-07-07 00:10:00,75.5,73.3,30.15,WNW,293,2.0,-999.0,93,0.00,,,0.00,Wunderground v.1.15,2013-07-07 04:10:00,
2013-07-07 00:15:00,75.5,73.3,30.15,WNW,293,2.0,-999.0,93,0.00,,,0.00,Wunderground v.1.15,2013-07-07 04:15:00,
2013-07-07 00:20:00,75.5,73.3,30.15,WNW,293,2.0,-999.0,93,0.00,,,0.00,Wunderground v.1.15,2013-07-07 04:20:00,
2013-07-07 00:25:00,75.5,73.3,30.15,WNW,293,2.0,-999.0,93,0.00,,,0.00,Wunderground v.1.15,2013-07-07 04:25:00,
2013-07-07 00:30:00,75.5,73.3,30.15,WNW,293,2.0,-999.0,93,0.00,,,0.00,Wunderground v.1.15,2013-07-07 04:30:00,
2013-07-07 00:35:00,75.5,73.3,30.15,WNW,293,2.0,-999.0,93,0.00,,,0.00,Wunderground v.1.15,2013-07-07 04:35:00,
2013-07-07 00:40:00,75.5,73.3,30.15,WNW,293,2.0,-999.0,93,0.00,,,0.00,Wunderground v.1.15,2013-07-07 04:40:00,
2013-07-07 00:45:00,75.6,73.4,30.15,WNW,293,2.0,-999.0,93,0.00,,,0.00,Wunderground v.1.15,2013-07-07 04:45:00,
2013-07-07 00:50:00,75.6,73.4,30.15,WNW,293,2.0,-999.0,93,0.00,,,0.00,Wunderground v.1.15,2013-07-07 04:50:00,
2013-07-07 00:55:00,75.6,73.4,30.15,WNW,293,2.0,-999.0,93,0.00,,,0.00,Wunderground v.1.15,2013-07-07 04:55:00,
2013-07-07 01:00:00,75.6,73.4,30.15,WNW,293,2.0,-999.0,93,0.00,,,0.00,Wunderground v.1.15,2013-07-07 05:00:00,
2013-07-07 01:05:00,75.6,73.4,30.15,WNW,293,2.0,-999.0,93,0.00,,,0.00,Wunderground v.1.15,2013-07-07 05:05:00,
2013-07-07 01:10:00,75.6,73.4,30.15,WNW,293,2.0,-999.0,93,0.00,,,0.00,Wunderground v.1.15,2013-07-07 05:10:00,
2013-07-07 01:15:00,75.6,73.4,30.15,West,270,2.0,-999.0,93,0.00,,,0.00,Wunderground v.1.15,2013-07-07 05:15:00,
2013-07-07 01:20:00,75.6,73.4,30.15,West,270,2.0,-999.0,93,0.00,,,0.00,Wunderground v.1.15,2013-07-07 05:20:00,
2013-07-07 01:25:00,75.6,73.4,30.15,West,270,2.0,-999.0,93,0.00,,,0.00,Wunderground v.1.15,2013-07-07 05:25:00,
2013-07-07 01:30:00,75.6,73.4,30.15,West,270,2.0,-999.0,93,0.00,,,0.00,Wunderground v.1.15,2013-07-07 05:30:00,
2013-07-07 01:35:00,75.6,73.4,30.15,West,270,2.0,-999.0,93,0.00,,,0.00,Wunderground v.1.15,2013-07-07 05:35:00,
2013-07-07 01:40:00,75.6,73.4,30.15,West,270,2.0,-999.0,93,0.00,,,0.00,Wunderground v.1.15,2013-07-07 05:40:00,
2013-07-07 01:45:00,75.3,73.1,30.14,West,270,2.0,-999.0,93,0.00,,,0.00,Wunderground v.1.15,2013-07-07 05:45:00,
2013-07-07 01:50:00,75.3,73.1,30.14,West,270,2.0,-999.0,93,0.00,,,0.00,Wunderground v.1.15,2013-07-07 05:50:00,
2013-07-07 01:55:00,75.3,73.1,30.14,West,270,2.0,-999.0,93,0.00,,,0.00,Wunderground v.1.15,2013-07-07 05:55:00,
2013-07-07 02:00:00,75.3,73.1,30.14,West,270,2.0,-999.0,93,0.00,,,0.00,Wunderground v.1.15,2013-07-07 06:00:00,
2013-07-07 02:05:00,75.3,73.1,30.14,West,270,2.0,-999.0,93,0.00,,,0.00,Wunderground v.1.15,2013-07-07 06:05:00,
2013-07-07 02:10:00,75.3,73.1,30.14,West,270,2.0,-999.0,93,0.00,,,0.00,Wunderground v.1.15,2013-07-07 06:10:00,
2013-07-07 02:15:00,75.5,73.7,30.14,West,270,2.0,-999.0,94,0.00,,,0.00,Wunderground v.1.15,2013-07-07 06:15:00,
2013-07-07 02:20:00,75.5,73.7,30.14,West,270,2.0,-999.0,94,0.00,,,0.00,Wunderground v.1.15,2013-07-07 06:20:00,
2013-07-07 02:25:00,75.5,73.7,30.14,West,270,2.0,-999.0,94,0.00,,,0.00,Wunderground v.1.15,2013-07-07 06:25:00,
2013-07-07 02:30:00,75.5,73.7,30.14,West,270,2.0,-999.0,94,0.00,,,0.00,Wunderground v.1.15,2013-07-07 06:30:00,
2013-07-07 02:35:00,75.5,73.7,30.14,West,270,2.0,-999.0,94,0.00,,,0.00,Wunderground v.1.15,2013-07-07 06:35:00,
2013-07-07 02:40:00,75.5,73.7,30.14,West,270,2.0,-999.0,94,0.00,,,0.00,Wunderground v.1.15,2013-07-07 06:40:00,
2013-07-07 02:45:00,75.4,73.6,30.13,WNW,293,1.0,-999.0,94,0.00,,,0.00,Wunderground v.1.15,2013-07-07 06:45:00,
2013-07-07 02:50:00,75.4,73.6,30.13,WNW,293,1.0,-999.0,94,0.00,,,0.00,Wunderground v.1.15,2013-07-07 06:50:00,
2013-07-07 02:55:00,75.4,73.6,30.13,WNW,293,1.0,-999.0,94,0.00,,,0.00,Wunderground v.1.15,2013-07-07 06:55:00,
2013-07-07 03:00:00,75.4,73.6,30.13,WNW,293,1.0,-999.0,94,0.00,,,0.00,Wunderground v.1.15,2013-07-07 07:00:00,
2013-07-07 03:05:00,75.4,73.6,30.13,WNW,293,1.0,-999.0,94,0.00,,,0.00,Wunderground v.1.15,2013-07-07 07:05:00,
2013-07-07 03:10:00,75.4,73.6,30.13,WNW,293,1.0,-999.0,94,0.00,,,0.00,Wunderground v.1.15,2013-07-07 07:10:00,
2013-07-07 03:15:00,75.3,73.5,30.12,WNW,293,1.0,-999.0,94,0.00,,,0.00,Wunderground v.1.15,2013-07-07 07:15:00,
2013-07-07 03:20:00,75.3,73.5,30.12,WNW,293,1.0,-999.0,94,0.00,,,0.00,Wunderground v.1.15,2013-07-07 07:20:00,
2013-07-07 03:25:00,75.3,73.5,30.12,WNW,293,1.0,-999.0,94,0.00,,,0.00,Wunderground v.1.15,2013-07-07 07:25:00,
2013-07-07 03:30:00,75.3,73.5,30.12,WNW,293,1.0,-999.0,94,0.00,,,0.00,Wunderground v.1.15,2013-07-07 07:30:00,
2013-07-07 03:35:00,75.3,73.5,30.12,WNW,293,1.0,-999.0,94,0.00,,,0.00,Wunderground v.1.15,2013-07-07 07:35:00,
2013-07-07 03:40:00,75.3,73.5,30.12,WNW,293,1.0,-999.0,94,0.00,,,0.00,Wunderground v.1.15,2013-07-07 07:40:00,
2013-07-07 03:45:00,75.1,73.3,30.12,WNW,293,2.0,-999.0,94,0.00,,,0.00,Wunderground v.1.15,2013-07-07 07:45:00,
2013-07-07 03:50:00,75.1,73.3,30.12,WNW,293,2.0,-999.0,94,0.00,,,0.00,Wunderground v.1.15,2013-07-07 07:50:00,
2013-07-07 03:55:00,75.1,73.3,30.12,WNW,293,2.0,-999.0,94,0.00,,,0.00,Wunderground v.1.15,2013-07-07 07:55:00,
2013-07-07 04:00:00,75.1,73.3,30.12,WNW,293,2.0,-999.0,94,0.00,,,0.00,Wunderground v.1.15,2013-07-07 08:00:00,
2013-07-07 04:05:00,75.1,73.3,30.12,WNW,293,2.0,-999.0,94,0.00,,,0.00,Wunderground v.1.15,2013-07-07 08:05:00,
2013-07-07 04:10:00,75.1,73.3,30.12,WNW,293,2.0,-999.0,94,0.00,,,0.00,Wunderground v.1.15,2013-07-07 08:10:00,
2013-07-07 04:15:00,74.9,73.1,30.13,West,270,2.0,-999.0,94,0.00,,,0.00,Wunderground v.1.15,2013-07-07 08:15:00,
2013-07-07 04:20:00,74.9,73.1,30.13,West,270,2.0,-999.0,94,0.00,,,0.00,Wunderground v.1.15,2013-07-07 08:20:00,
2013-07-07 04:25:00,74.9,73.1,30.13,West,270,2.0,-999.0,94,0.00,,,0.00,Wunderground v.1.15,2013-07-07 08:25:00,
2013-07-07 04:30:00,74.9,73.1,30.13,West,270,2.0,-999.0,94,0.00,,,0.00,Wunderground v.1.15,2013-07-07 08:30:00,
2013-07-07 04:35:00,74.9,73.1,30.13,West,270,2.0,-999.0,94,0.00,,,0.00,Wunderground v.1.15,2013-07-07 08:35:00,
2013-07-07 04:40:00,74.9,73.1,30.13,West,270,2.0,-999.0,94,0.00,,,0.00,Wunderground v.1.15,2013-07-07 08:40:00,
2013-07-07 04:45:00,74.6,72.8,30.13,West,270,2.0,-999.0,94,0.00,,,0.00,Wunderground v.1.15,2013-07-07 08:45:00,
2013-07-07 04:50:00,74.6,72.8,30.13,West,270,2.0,-999.0,94,0.00,,,0.00,Wunderground v.1.15,2013-07-07 08:50:00,
2013-07-07 04:55:00,74.6,72.8,30.13,West,270,2.0,-999.0,94,0.00,,,0.00,Wunderground v.1.15,2013-07-07 08:55:00,
2013-07-07 05:00:00,74.6,72.8,30.13,West,270,2.0,-999.0,94,0.00,,,0.00,Wunderground v.1.15,2013-07-07 09:00:00,
2013-07-07 05:05:00,74.6,72.8,30.13,West,270,2.0,-999.0,94,0.00,,,0.00,Wunderground v.1.15,2013-07-07 09:05:00,
2013-07-07 05:10:00,74.6,72.8,30.13,West,270,2.0,-999.0,94,0.00,,,0.00,Wunderground v.1.15,2013-07-07 09:10:00,
2013-07-07 05:15:00,74.6,72.8,30.13,West,270,2.0,-999.0,94,0.00,,,0.00,Wunderground v.1.15,2013-07-07 09:15:00,
2013-07-07 05:20:00,74.6,72.8,30.13,West,270,2.0,-999.0,94,0.00,,,0.00,Wunderground v.1.15,2013-07-07 09:20:00,
2013-07-07 05:25:00,74.6,72.8,30.13,West,270,2.0,-999.0,94,0.00,,,0.00,Wunderground v.1.15,2013-07-07 09:25:00,
2013-07-07 05:30:00,74.6,72.8,30.13,West,270,2.0,-999.0,94,0.00,,,0.00,Wunderground v.1.15,2013-07-07 09:30:00,
2013-07-07 05:35:00,74.6,72.8,30.13,West,270,2.0,-999.0,94,0.00,,,0.00,Wunderground v.1.15,2013-07-07 09:35:00,
2013-07-07 05:40:00,74.6,72.8,30.13,West,270,2.0,-999.0,94,0.00,,,0.00,Wunderground v.1.15,2013-07-07 09:40:00,
2013-07-07 05:45:00,74.5,72.7,30.13,West,270,3.0,-999.0,94,0.00,,,0.00,Wunderground v.1.15,2013-07-07 09:45:00,
2013-07-07 05:50:00,74.5,72.7,30.13,West,270,3.0,-999.0,94,0.00,,,0.00,Wunderground v.1.15,2013-07-07 09:50:00,
2013-07-07 05:55:00,74.5,72.7,30.13,West,270,3.0,-999.0,94,0.00,,,0.00,Wunderground v.1.15,2013-07-07 09:55:00,
2013-07-07 06:00:00,74.5,72.7,30.13,West,270,3.0,-999.0,94,0.00,,,0.00,Wunderground v.1.15,2013-07-07 10:00:00,
2013-07-07 06:05:00,74.5,72.7,30.13,West,270,3.0,-999.0,94,0.00,,,0.00,Wunderground v.1.15,2013-07-07 10:05:00,
2013-07-07 06:10:00,74.5,72.7,30.13,West,270,3.0,-999.0,94,0.00,,,0.00,Wunderground v.1.15,2013-07-07 10:10:00,
2013-07-07 06:15:00,74.4,72.6,30.13,West,270,2.0,-999.0,94,0.00,,,0.00,Wunderground v.1.15,2013-07-07 10:15:00,
2013-07-07 06:20:00,74.4,72.6,30.13,West,270,2.0,-999.0,94,0.00,,,0.00,Wunderground v.1.15,2013-07-07 10:20:00,
2013-07-07 06:25:00,74.4,72.6,30.13,West,270,2.0,-999.0,94,0.00,,,0.00,Wunderground v.1.15,2013-07-07 10:25:00,
2013-07-07 06:30:00,74.4,72.6,30.13,West,270,2.0,-999.0,94,0.00,,,0.00,Wunderground v.1.15,2013-07-07 10:30:00,
2013-07-07 06:35:00,74.4,72.6,30.13,West,270,2.0,-999.0,94,0.00,,,0.00,Wunderground v.1.15,2013-07-07 10:35:00,
2013-07-07 06:40:00,74.4,72.6,30.13,West,270,2.0,-999.0,94,0.00,,,0.00,Wunderground v.1.15,2013-07-07 10:40:00,
2013-07-07 06:45:00,74.9,73.1,30.13,WNW,293,2.0,-999.0,94,0.00,,,0.00,Wunderground v.1.15,2013-07-07 10:45:00,
2013-07-07 06:50:00,74.9,73.1,30.13,WNW,293,2.0,-999.0,94,0.00,,,0.00,Wunderground v.1.15,2013-07-07 10:50:00,
2013-07-07 06:55:00,74.9,73.1,30.13,WNW,293,2.0,-999.0,94,0.00,,,0.00,Wunderground v.1.15,2013-07-07 10:55:00,
2013-07-07 07:00:00,74.9,73.1,30.13,WNW,293,2.0,-999.0,94,0.00,,,0.00,Wunderground v.1.15,2013-07-07 11:00:00,
2013-07-07 07:05:00,74.9,73.1,30.13,WNW,293,2.0,-999.0,94,0.00,,,0.00,Wunderground v.1.15,2013-07-07 11:05:00,
2013-07-07 07:10:00,74.9,73.1,30.13,WNW,293,2.0,-999.0,94,0.00,,,0.00,Wunderground v.1.15,2013-07-07 11:10:00,
2013-07-07 07:15:00,75.3,73.5,30.13,West,270,1.0,-999.0,94,0.00,,,0.00,Wunderground v.1.15,2013-07-07 11:15:00,
2013-07-07 07:20:00,75.3,73.5,30.13,West,270,1.0,-999.0,94,0.00,,,0.00,Wunderground v.1.15,2013-07-07 11:20:00,
2013-07-07 07:25:00,75.3,73.5,30.13,West,270,1.0,-999.0,94,0.00,,,0.00,Wunderground v.1.15,2013-07-07 11:25:00,
2013-07-07 07:30:00,75.3,73.5,30.13,West,270,1.0,-999.0,94,0.00,,,0.00,Wunderground v.1.15,2013-07-07 11:30:00,
2013-07-07 07:35:00,75.3,73.5,30.13,West,270,1.0,-999.0,94,0.00,,,0.00,Wunderground v.1.15,2013-07-07 11:35:00,
2013-07-07 07:40:00,75.3,73.5,30.13,West,270,1.0,-999.0,94,0.00,,,0.00,Wunderground v.1.15,2013-07-07 11:40:00,
2013-07-07 07:45:00,75.4,73.2,30.14,West,270,2.0,-999.0,93,0.00,,,0.00,Wunderground v.1.15,2013-07-07 11:45:00,
2013-07-07 07:50:00,75.4,73.2,30.14,West,270,2.0,-999.0,93,0.00,,,0.00,Wunderground v.1.15,2013-07-07 11:50:00,
2013-07-07 07:55:00,75.4,73.2,30.14,West,270,2.0,-999.0,93,0.00,,,0.00,Wunderground v.1.15,2013-07-07 11:55:00,
2013-07-07 08:08:00,75.4,73.2,30.14,West,270,2.0,-999.0,93,0.00,,,0.00,Wunderground v.1.15,2013-07-07 12:08:00,
2013-07-07 08:15:00,75.4,73.2,30.14,WNW,297,2.0,2.0,93,0.00,,,0.00,Wunderground v.1.15,2013-07-07 12:15:00,
2013-07-07 08:20:00,75.6,73.4,30.14,West,263,2.0,5.0,93,0.00,,,0.00,Wunderground v.1.15,2013-07-07 12:20:00,
2013-07-07 08:25:00,75.7,73.5,30.14,West,268,2.0,2.0,93,0.00,,,0.00,Wunderground v.1.15,2013-07-07 12:25:00,
2013-07-07 08:30:00,75.9,73.7,30.14,WNW,285,2.0,2.0,93,0.00,,,0.00,Wunderground v.1.15,2013-07-07 12:30:00,
2013-07-07 08:35:00,76.1,73.6,30.14,West,273,2.0,5.0,92,0.00,,,0.00,Wunderground v.1.15,2013-07-07 12:35:00,
2013-07-07 08:40:00,76.4,73.9,30.14,West,281,3.0,5.0,92,0.00,,,0.00,Wunderground v.1.15,2013-07-07 12:40:00,
2013-07-07 08:45:00,76.5,74.0,30.14,West,281,2.0,2.0,92,0.00,,,0.00,Wunderground v.1.15,2013-07-07 12:45:00,
2013-07-07 08:50:00,76.3,73.8,30.14,West,274,2.0,3.0,92,0.00,,,0.00,Wunderground v.1.15,2013-07-07 12:50:00,
2013-07-07 08:55:00,76.3,73.8,30.14,WNW,286,2.0,2.0,92,0.00,,,0.00,Wunderground v.1.15,2013-07-07 12:55:00,
2013-07-07 09:00:00,76.2,73.7,30.14,West,273,1.0,2.0,92,0.00,,,0.00,Wunderground v.1.15,2013-07-07 13:00:00,
2013-07-07 09:05:00,76.3,73.8,30.15,WSW,255,1.0,3.0,92,0.00,,,0.00,Wunderground v.1.15,2013-07-07 13:05:00,
2013-07-07 09:15:00,76.7,74.2,30.15,WNW,287,3.0,3.0,92,0.00,,,0.00,Wunderground v.1.15,2013-07-07 13:15:00,
2013-07-07 09:20:00,77.0,74.2,30.15,West,277,2.0,3.0,91,0.00,,,0.00,Wunderground v.1.15,2013-07-07 13:20:00,
2013-07-07 09:25:00,77.0,74.2,30.15,WNW,289,3.0,3.0,91,0.00,,,0.00,Wunderground v.1.15,2013-07-07 13:25:00,
2013-07-07 09:30:00,76.9,73.7,30.15,West,275,3.0,3.0,90,0.00,,,0.00,Wunderground v.1.15,2013-07-07 13:30:00,
2013-07-07 09:35:00,76.9,74.1,30.15,West,277,2.0,3.0,91,0.00,,,0.00,Wunderground v.1.15,2013-07-07 13:35:00,
2013-07-07 09:40:00,76.9,74.1,30.15,West,277,1.0,1.0,91,0.00,,,0.00,Wunderground v.1.15,2013-07-07 13:40:00,
2013-07-07 09:45:00,76.7,73.5,30.15,West,279,1.0,1.0,90,0.00,,,0.00,Wunderground v.1.15,2013-07-07 13:45:00,
2013-07-07 09:50:00,76.7,73.9,30.15,West,272,1.0,3.0,91,0.00,,,0.00,Wunderground v.1.15,2013-07-07 13:50:00,
2013-07-07 09:55:00,76.7,73.9,30.15,WNW,284,2.0,3.0,91,0.00,,,0.00,Wunderground v.1.15,2013-07-07 13:55:00,
2013-07-07 10:00:00,76.7,73.9,30.15,West,280,2.0,3.0,91,0.00,,,0.00,Wunderground v.1.15,2013-07-07 14:00:00,
2013-07-07 10:05:00,76.9,74.1,30.15,West,275,2.0,5.0,91,0.00,,,0.00,Wunderground v.1.15,2013-07-07 14:05:00,
2013-07-07 10:10:00,77.0,74.2,30.15,West,269,1.0,1.0,91,0.00,,,0.00,Wunderground v.1.15,2013-07-07 14:10:00,
2013-07-07 10:15:00,77.1,73.9,30.15,West,267,1.0,3.0,90,0.00,,,0.00,Wunderground v.1.15,2013-07-07 14:15:00,
2013-07-07 10:20:00,77.3,74.1,30.15,West,268,1.0,6.0,90,0.00,,,0.00,Wunderground v.1.15,2013-07-07 14:20:00,
2013-07-07 10:25:00,77.6,74.4,30.14,West,262,1.0,6.0,90,0.00,,,0.00,Wunderground v.1.15,2013-07-07 14:25:00,
2013-07-07 10:30:00,77.8,74.3,30.14,WNW,292,1.0,6.0,89,0.00,,,0.00,Wunderground v.1.15,2013-07-07 14:30:00,
2013-07-07 10:35:00,77.9,74.4,30.14,NW,310,1.0,6.0,89,0.00,,,0.00,Wunderground v.1.15,2013-07-07 14:35:00,
2013-07-07 10:40:00,77.9,74.1,30.14,WNW,288,1.0,6.0,88,0.00,,,0.00,Wunderground v.1.15,2013-07-07 14:40:00,
2013-07-07 10:45:00,77.8,74.3,30.14,WNW,290,1.0,6.0,89,0.00,,,0.00,Wunderground v.1.15,2013-07-07 14:45:00,
2013-07-07 10:50:00,77.8,74.0,30.14,SE,129,2.0,2.0,88,0.00,,,0.00,Wunderground v.1.15,2013-07-07 14:50:00,
2013-07-07 10:55:00,77.7,73.9,30.14,WNW,291,2.0,6.0,88,0.00,,,0.00,Wunderground v.1.15,2013-07-07 14:55:00,
2013-07-07 11:00:00,77.7,74.2,30.14,WNW,284,1.0,1.0,89,0.00,,,0.00,Wunderground v.1.15,2013-07-07 15:00:00,
2013-07-07 11:05:00,77.8,74.0,30.15,NW,304,1.0,6.0,88,0.00,,,0.00,Wunderground v.1.15,2013-07-07 15:05:00,
2013-07-07 11:10:00,78.0,73.8,30.14,NW,319,1.0,6.0,87,0.00,,,0.00,Wunderground v.1.15,2013-07-07 15:10:00,
2013-07-07 11:15:00,78.3,74.1,30.14,WNW,284,2.0,6.0,87,0.00,,,0.00,Wunderground v.1.15,2013-07-07 15:15:00,
2013-07-07 11:20:00,78.6,74.4,30.14,West,272,3.0,3.0,87,0.00,,,0.00,Wunderground v.1.15,2013-07-07 15:20:00,
2013-07-07 11:25:00,78.5,74.6,30.14,West,281,2.0,6.0,88,0.00,,,0.00,Wunderground v.1.15,2013-07-07 15:25:00,
2013-07-07 11:30:00,78.7,74.8,30.14,WSW,239,2.0,2.0,88,0.00,,,0.00,Wunderground v.1.15,2013-07-07 15:30:00,
2013-07-07 11:35:00,79.2,75.3,30.14,West,275,2.0,6.0,88,0.00,,,0.00,Wunderground v.1.15,2013-07-07 15:35:00,
2013-07-07 11:40:00,79.2,75.0,30.14,West,271,3.0,6.0,87,0.00,,,0.00,Wunderground v.1.15,2013-07-07 15:40:00,
2013-07-07 11:45:00,79.1,74.5,30.14,WNW,298,2.0,6.0,86,0.00,,,0.00,Wunderground v.1.15,2013-07-07 15:45:00,
2013-07-07 11:50:00,79.2,74.6,30.14,WNW,287,2.0,2.0,86,0.00,,,0.00,Wunderground v.1.15,2013-07-07 15:50:00,
2013-07-07 11:55:00,79.1,74.5,30.14,West,271,2.0,3.0,86,0.00,,,0.00,Wunderground v.1.15,2013-07-07 15:55:00,
2013-07-07 12:00:00,79.2,74.6,30.14,West,263,3.0,6.0,86,0.00,,,0.00,Wunderground v.1.15,2013-07-07 16:00:00,
2013-07-07 12:05:00,79.5,75.3,30.14,West,274,3.0,6.0,87,0.00,,,0.00,Wunderground v.1.15,2013-07-07 16:05:00,
2013-07-07 12:10:00,79.4,74.8,30.14,SSW,200,3.0,6.0,86,0.00,,,0.00,Wunderground v.1.15,2013-07-07 16:10:00,
2013-07-07 12:15:00,79.5,75.3,30.14,WNW,288,3.0,6.0,87,0.00,,,0.00,Wunderground v.1.15,2013-07-07 16:15:00,
2013-07-07 12:20:00,79.6,75.4,30.14,WNW,290,4.0,4.0,87,0.00,,,0.00,Wunderground v.1.15,2013-07-07 16:20:00,
2013-07-07 12:25:00,79.9,75.7,30.14,West,277,3.0,6.0,87,0.00,,,0.00,Wunderground v.1.15,2013-07-07 16:25:00,
2013-07-07 12:30:00,80.1,75.5,30.13,WSW,250,3.0,6.0,86,0.00,,,0.00,Wunderground v.1.15,2013-07-07 16:30:00,
2013-07-07 12:35:00,80.2,75.3,30.13,WNW,283,3.0,6.0,85,0.00,,,0.00,Wunderground v.1.15,2013-07-07 16:35:00,
2013-07-07 12:40:00,80.5,75.6,30.13,WSW,255,3.0,6.0,85,0.00,,,0.00,Wunderground v.1.15,2013-07-07 16:40:00,
2013-07-07 12:45:00,80.6,76.0,30.13,NNE,17,4.0,6.0,86,0.00,,,0.00,Wunderground v.1.15,2013-07-07 16:45:00,
2013-07-07 12:50:00,80.0,75.1,30.13,WNW,293,3.0,6.0,85,0.00,,,0.00,Wunderground v.1.15,2013-07-07 16:50:00,
2013-07-07 12:55:00,80.0,75.4,30.13,WNW,295,3.0,6.0,86,0.00,,,0.00,Wunderground v.1.15,2013-07-07 16:55:00,
2013-07-07 13:00:00,80.2,75.3,30.13,WNW,283,4.0,6.0,85,0.00,,,0.00,Wunderground v.1.15,2013-07-07 17:00:00,
2013-07-07 13:05:00,80.5,75.9,30.13,WNW,283,3.0,6.0,86,0.00,,,0.00,Wunderground v.1.15,2013-07-07 17:05:00,
2013-07-07 13:10:00,80.4,75.8,30.12,West,281,3.0,3.0,86,0.00,,,0.00,Wunderground v.1.15,2013-07-07 17:10:00,
2013-07-07 13:15:00,80.5,75.9,30.12,WNW,287,3.0,6.0,86,0.00,,,0.00,Wunderground v.1.15,2013-07-07 17:15:00,
2013-07-07 13:20:00,80.4,76.2,30.12,West,281,2.0,6.0,87,0.00,,,0.01,Wunderground v.1.15,2013-07-07 17:20:00,
2013-07-07 13:25:00,80.5,76.6,30.12,WNW,288,1.0,6.0,88,0.00,,,0.01,Wunderground v.1.15,2013-07-07 17:25:00,
2013-07-07 13:30:00,80.9,76.7,30.12,WSW,243,2.0,6.0,87,0.00,,,0.01,Wunderground v.1.15,2013-07-07 17:30:00,
2013-07-07 13:35:00,81.2,76.3,30.12,WNW,302,3.0,6.0,85,0.00,,,0.01,Wunderground v.1.15,2013-07-07 17:35:00,
2013-07-07 13:40:00,81.4,76.8,30.12,WNW,292,3.0,3.0,86,0.00,,,0.01,Wunderground v.1.15,2013-07-07 17:40:00,
2013-07-07 13:45:00,81.7,76.7,30.12,WSW,254,3.0,6.0,85,0.00,,,0.01,Wunderground v.1.15,2013-07-07 17:45:00,
2013-07-07 13:50:00,81.9,76.6,30.12,ENE,72,3.0,6.0,84,0.00,,,0.01,Wunderground v.1.15,2013-07-07 17:50:00,
2013-07-07 13:55:00,81.9,76.6,30.12,West,275,2.0,6.0,84,0.00,,,0.01,Wunderground v.1.15,2013-07-07 17:55:00,
2013-07-07 14:00:00,81.9,76.6,30.12,SSW,208,3.0,3.0,84,0.00,,,0.01,Wunderground v.1.15,2013-07-07 18:00:00,
2013-07-07 14:05:00,82.1,76.4,30.11,West,278,4.0,4.0,83,0.00,,,0.01,Wunderground v.1.15,2013-07-07 18:05:00,
2013-07-07 14:10:00,82.4,77.1,30.12,West,277,3.0,6.0,84,0.00,,,0.01,Wunderground v.1.15,2013-07-07 18:10:00,
2013-07-07 14:15:00,82.6,77.3,30.11,WNW,297,3.0,6.0,84,0.00,,,0.01,Wunderground v.1.15,2013-07-07 18:15:00,
2013-07-07 14:20:00,82.5,76.4,30.11,NW,313,3.0,3.0,82,0.00,,,0.01,Wunderground v.1.15,2013-07-07 18:20:00,
2013-07-07 14:25:00,82.3,76.3,30.11,WNW,284,3.0,6.0,82,0.00,,,0.01,Wunderground v.1.15,2013-07-07 18:25:00,
2013-07-07 14:30:00,82.3,76.3,30.10,WNW,300,3.0,3.0,82,0.00,,,0.01,Wunderground v.1.15,2013-07-07 18:30:00,
2013-07-07 14:35:00,82.7,76.3,30.10,WNW,288,3.0,4.0,81,0.00,,,0.01,Wunderground v.1.15,2013-07-07 18:35:00,
2013-07-07 14:40:00,82.6,76.5,30.10,West,278,3.0,3.0,82,0.00,,,0.01,Wunderground v.1.15,2013-07-07 18:40:00,
2013-07-07 14:45:00,82.6,76.2,30.10,West,279,2.0,6.0,81,0.00,,,0.01,Wunderground v.1.15,2013-07-07 18:45:00,
2013-07-07 14:50:00,82.7,75.9,30.10,NW,313,2.0,6.0,80,0.00,,,0.01,Wunderground v.1.15,2013-07-07 18:50:00,
2013-07-07 14:55:00,83.0,76.6,30.10,West,277,2.0,6.0,81,0.00,,,0.01,Wunderground v.1.15,2013-07-07 18:55:00,
2013-07-07 15:00:00,83.4,77.0,30.10,West,267,2.0,6.0,81,0.00,,,0.01,Wunderground v.1.15,2013-07-07 19:00:00,
2013-07-07 15:05:00,82.9,76.5,30.10,WNW,300,2.0,6.0,81,0.00,,,0.01,Wunderground v.1.15,2013-07-07 19:05:00,
2013-07-07 15:10:00,82.1,76.4,30.10,WNW,282,2.0,2.0,83,0.00,,,0.01,Wunderground v.1.15,2013-07-07 19:10:00,
2013-07-07 15:15:00,81.9,76.6,30.09,West,270,2.0,3.0,84,0.00,,,0.01,Wunderground v.1.15,2013-07-07 19:15:00,
2013-07-07 15:20:00,81.9,76.6,30.09,West,267,1.0,6.0,84,0.00,,,0.01,Wunderground v.1.15,2013-07-07 19:20:00,
2013-07-07 15:25:00,82.2,76.9,30.09,WNW,286,2.0,6.0,84,0.00,,,0.01,Wunderground v.1.15,2013-07-07 19:25:00,
2013-07-07 15:30:00,82.3,77.3,30.09,West,272,2.0,2.0,85,0.00,,,0.01,Wunderground v.1.15,2013-07-07 19:30:00,
2013-07-07 15:35:00,82.8,77.5,30.09,West,269,2.0,3.0,84,0.00,,,0.01,Wunderground v.1.15,2013-07-07 19:35:00,
2013-07-07 15:40:00,83.4,78.1,30.08,East,92,2.0,2.0,84,0.00,,,0.01,Wunderground v.1.15,2013-07-07 19:40:00,
2013-07-07 15:45:00,83.5,77.4,30.08,West,269,2.0,3.0,82,0.00,,,0.01,Wunderground v.1.15,2013-07-07 19:45:00,
2013-07-07 15:50:00,83.4,77.3,30.08,West,269,2.0,6.0,82,0.00,,,0.01,Wunderground v.1.15,2013-07-07 19:50:00,
2013-07-07 15:55:00,83.9,77.8,30.08,NW,317,2.0,6.0,82,0.00,,,0.01,Wunderground v.1.15,2013-07-07 19:55:00,
2013-07-07 16:00:00,84.5,78.4,30.08,WNW,282,1.0,6.0,82,0.00,,,0.01,Wunderground v.1.15,2013-07-07 20:00:00,
2013-07-07 16:05:00,84.5,77.6,30.07,SW,224,1.0,6.0,80,0.00,,,0.01,Wunderground v.1.15,2013-07-07 20:05:00,
2013-07-07 16:10:00,84.9,78.0,30.07,NNW,329,1.0,1.0,80,0.00,,,0.01,Wunderground v.1.15,2013-07-07 20:10:00,
2013-07-07 16:15:00,85.3,77.7,30.07,SE,136,1.0,6.0,78,0.00,,,0.01,Wunderground v.1.15,2013-07-07 20:15:00,
2013-07-07 16:20:00,85.1,77.5,30.07,West,273,2.0,2.0,78,0.00,,,0.01,Wunderground v.1.15,2013-07-07 20:20:00,
2013-07-07 16:25:00,84.6,77.0,30.07,WNW,286,2.0,6.0,78,0.00,,,0.01,Wunderground v.1.15,2013-07-07 20:25:00,
2013-07-07 16:30:00,84.8,77.2,30.06,WNW,290,1.0,6.0,78,0.00,,,0.01,Wunderground v.1.15,2013-07-07 20:30:00,
2013-07-07 16:35:00,85.2,76.8,30.06,WNW,286,2.0,6.0,76,0.00,,,0.01,Wunderground v.1.15,2013-07-07 20:35:00,
2013-07-07 16:40:00,85.9,77.5,30.06,West,277,2.0,6.0,76,0.00,,,0.01,Wunderground v.1.15,2013-07-07 20:40:00,
2013-07-07 16:45:00,86.1,76.8,30.06,WNW,291,2.0,6.0,74,0.00,,,0.01,Wunderground v.1.15,2013-07-07 20:45:00,
2013-07-07 16:50:00,85.8,75.7,30.06,NW,308,2.0,6.0,72,0.00,,,0.01,Wunderground v.1.15,2013-07-07 20:50:00,
2013-07-07 16:55:00,85.8,76.5,30.06,West,274,2.0,6.0,74,0.00,,,0.01,Wunderground v.1.15,2013-07-07 20:55:00,
2013-07-07 17:00:00,86.2,77.3,30.06,West,262,2.0,6.0,75,0.00,,,0.01,Wunderground v.1.15,2013-07-07 21:00:00,
2013-07-07 17:05:00,86.1,76.4,30.06,West,267,2.0,6.0,73,0.00,,,0.01,Wunderground v.1.15,2013-07-07 21:05:00,
2013-07-07 17:10:00,85.8,76.5,30.06,West,279,1.0,3.0,74,0.00,,,0.01,Wunderground v.1.15,2013-07-07 21:10:00,
2013-07-07 17:15:00,85.5,75.4,30.06,WSW,257,2.0,3.0,72,0.00,,,0.01,Wunderground v.1.15,2013-07-07 21:15:00,
2013-07-07 17:20:00,85.2,76.0,30.06,WSW,256,2.0,2.0,74,0.00,,,0.01,Wunderground v.1.15,2013-07-07 21:20:00,
2013-07-07 17:25:00,85.1,75.5,30.06,WSW,255,1.0,2.0,73,0.00,,,0.01,Wunderground v.1.15,2013-07-07 21:25:00,
2013-07-07 17:30:00,85.1,76.3,30.06,West,278,1.0,1.0,75,0.00,,,0.01,Wunderground v.1.15,2013-07-07 21:30:00,
2013-07-07 17:35:00,85.4,76.6,30.05,West,272,2.0,2.0,75,0.00,,,0.01,Wunderground v.1.15,2013-07-07 21:35:00,
2013-07-07 17:40:00,85.4,75.8,30.05,WSW,250,2.0,2.0,73,0.00,,,0.01,Wunderground v.1.15,2013-07-07 21:40:00,
2013-07-07 17:45:00,85.1,75.9,30.05,West,275,2.0,2.0,74,0.00,,,0.01,Wunderground v.1.15,2013-07-07 21:45:00,
2013-07-07 17:50:00,85.0,75.8,30.05,WNW,292,2.0,2.0,74,0.00,,,0.01,Wunderground v.1.15,2013-07-07 21:50:00,
2013-07-07 17:55:00,85.0,75.8,30.04,WSW,246,2.0,3.0,74,0.00,,,0.01,Wunderground v.1.15,2013-07-07 21:55:00,
2013-07-07 18:00:00,85.2,76.0,30.05,West,269,2.0,2.0,74,0.00,,,0.01,Wunderground v.1.15,2013-07-07 22:00:00,
2013-07-07 18:05:00,85.9,75.8,30.04,West,276,1.0,6.0,72,0.00,,,0.01,Wunderground v.1.15,2013-07-07 22:05:00,
2013-07-07 18:10:00,85.9,75.8,30.04,WNW,288,2.0,2.0,72,0.00,,,0.01,Wunderground v.1.15,2013-07-07 22:10:00,
2013-07-07 18:15:00,85.6,75.5,30.04,WSW,240,2.0,6.0,72,0.00,,,0.01,Wunderground v.1.15,2013-07-07 22:15:00,
2013-07-07 18:20:00,85.3,75.2,30.04,WNW,292,1.0,1.0,72,0.00,,,0.01,Wunderground v.1.15,2013-07-07 22:20:00,
2013-07-07 18:25:00,85.0,75.4,30.04,SW,236,1.0,6.0,73,0.00,,,0.01,Wunderground v.1.15,2013-07-07 22:25:00,
2013-07-07 18:35:00,84.4,74.8,30.05,West,279,2.0,4.0,73,0.00,,,0.01,Wunderground v.1.15,2013-07-07 22:35:00,
2013-07-07 18:40:00,84.2,74.6,30.05,WNW,286,2.0,2.0,73,0.00,,,0.01,Wunderground v.1.15,2013-07-07 22:40:00,
2013-07-07 18:45:00,83.9,74.3,30.05,West,271,2.0,3.0,73,0.00,,,0.01,Wunderground v.1.15,2013-07-07 22:45:00,
2013-07-07 18:55:00,83.3,74.5,30.05,WNW,284,2.0,6.0,75,0.00,,,0.01,Wunderground v.1.15,2013-07-07 22:55:00,
2013-07-07 19:00:00,83.0,74.6,30.05,WNW,286,2.0,2.0,76,0.00,,,0.01,Wunderground v.1.15,2013-07-07 23:00:00,
2013-07-07 19:05:00,82.8,74.5,30.05,West,279,1.0,6.0,76,0.00,,,0.01,Wunderground v.1.15,2013-07-07 23:05:00,
2013-07-07 19:10:00,82.7,74.4,30.05,West,268,1.0,6.0,76,0.00,,,0.01,Wunderground v.1.15,2013-07-07 23:10:00,
2013-07-07 19:15:00,82.6,75.0,30.05,WSW,254,2.0,6.0,78,0.00,,,0.01,Wunderground v.1.15,2013-07-07 23:15:00,
2013-07-07 19:20:00,82.5,74.9,30.05,WNW,288,2.0,2.0,78,0.00,,,0.01,Wunderground v.1.15,2013-07-07 23:20:00,
2013-07-07 19:25:00,82.5,74.9,30.05,West,275,1.0,6.0,78,0.00,,,0.01,Wunderground v.1.15,2013-07-07 23:25:00,
2013-07-07 19:30:00,82.3,74.7,30.05,West,275,1.0,6.0,78,0.00,,,0.01,Wunderground v.1.15,2013-07-07 23:30:00,
2013-07-07 19:35:00,82.1,75.3,30.05,West,275,1.0,6.0,80,0.00,,,0.01,Wunderground v.1.15,2013-07-07 23:35:00,
2013-07-07 19:40:00,81.8,74.6,30.05,WSW,246,1.0,1.0,79,0.00,,,0.01,Wunderground v.1.15,2013-07-07 23:40:00,
2013-07-07 19:45:00,81.7,74.9,30.06,WSW,246,0.0,6.0,80,0.00,,,0.01,Wunderground v.1.15,2013-07-07 23:45:00,
2013-07-07 19:50:00,81.4,74.3,30.06,WSW,246,0.0,6.0,79,0.00,,,0.01,Wunderground v.1.15,2013-07-07 23:50:00,
2013-07-07 19:55:00,81.0,74.2,30.06,West,265,1.0,6.0,80,0.00,,,0.01,Wunderground v.1.15,2013-07-07 23:55:00,
2013-07-07 20:00:00,80.9,74.1,30.07,WSW,246,2.0,2.0,80,0.00,,,0.01,Wunderground v.1.15,2013-07-08 00:00:00,
2013-07-07 20:05:00,80.8,74.4,30.07,West,265,1.0,6.0,81,0.00,,,0.01,Wunderground v.1.15,2013-07-08 00:05:00,
2013-07-07 20:10:00,80.7,74.0,30.07,West,266,1.0,6.0,80,0.00,,,0.01,Wunderground v.1.15,2013-07-08 00:10:00,
2013-07-07 20:15:00,80.4,73.7,30.07,WSW,242,2.0,6.0,80,0.00,,,0.01,Wunderground v.1.15,2013-07-08 00:15:00,
2013-07-07 20:20:00,80.2,73.8,30.07,WSW,250,2.0,6.0,81,0.00,,,0.01,Wunderground v.1.15,2013-07-08 00:20:00,
2013-07-07 20:25:00,80.1,74.1,30.07,West,271,2.0,6.0,82,0.00,,,0.01,Wunderground v.1.15,2013-07-08 00:25:00,
2013-07-07 20:30:00,79.9,73.9,30.08,West,271,1.0,6.0,82,0.00,,,0.01,Wunderground v.1.15,2013-07-08 00:30:00,
2013-07-07 20:35:00,79.9,74.3,30.08,WNW,286,1.0,6.0,83,0.00,,,0.01,Wunderground v.1.15,2013-07-08 00:35:00,
2013-07-07 20:40:00,80.0,74.4,30.08,WNW,286,1.0,6.0,83,0.00,,,0.01,Wunderground v.1.15,2013-07-08 00:40:00,
2013-07-07 20:45:00,80.0,74.0,30.08,West,260,1.0,6.0,82,0.00,,,0.01,Wunderground v.1.15,2013-07-08 00:45:00,
2013-07-07 20:50:00,79.8,74.2,30.08,West,260,1.0,1.0,83,0.00,,,0.01,Wunderground v.1.15,2013-07-08 00:50:00,
2013-07-07 20:55:00,79.7,74.1,30.07,West,276,1.0,6.0,83,0.00,,,0.01,Wunderground v.1.15,2013-07-08 00:55:00,
2013-07-07 21:00:00,79.5,73.5,30.07,West,277,1.0,6.0,82,0.00,,,0.01,Wunderground v.1.15,2013-07-08 01:00:00,
2013-07-07 21:05:00,79.5,73.9,30.07,West,279,1.0,6.0,83,0.00,,,0.01,Wunderground v.1.15,2013-07-08 01:05:00,
2013-07-07 21:10:00,79.3,73.7,30.08,West,279,1.0,1.0,83,0.00,,,0.01,Wunderground v.1.15,2013-07-08 01:10:00,
2013-07-07 21:15:00,79.2,73.6,30.08,West,272,1.0,6.0,83,0.00,,,0.01,Wunderground v.1.15,2013-07-08 01:15:00,
2013-07-07 21:20:00,79.1,73.5,30.08,West,275,1.0,6.0,83,0.00,,,0.01,Wunderground v.1.15,2013-07-08 01:20:00,
2013-07-07 21:30:00,78.8,72.8,30.08,West,277,1.0,6.0,82,0.00,,,0.01,Wunderground v.1.15,2013-07-08 01:30:00,
2013-07-07 21:35:00,78.7,72.7,30.09,WSW,240,1.0,6.0,82,0.00,,,0.01,Wunderground v.1.15,2013-07-08 01:35:00,
2013-07-07 21:40:00,78.6,72.6,30.09,West,272,1.0,1.0,82,0.00,,,0.01,Wunderground v.1.15,2013-07-08 01:40:00,
2013-07-07 21:45:00,78.5,72.2,30.09,West,272,1.0,6.0,81,0.00,,,0.01,Wunderground v.1.15,2013-07-08 01:45:00,
2013-07-07 21:50:00,78.5,72.5,30.09,WNW,288,1.0,6.0,82,0.00,,,0.01,Wunderground v.1.15,2013-07-08 01:50:00,
2013-07-07 21:55:00,78.4,72.1,30.10,West,281,1.0,6.0,81,0.00,,,0.01,Wunderground v.1.15,2013-07-08 01:55:00,
2013-07-07 22:00:00,78.3,72.3,30.11,West,259,2.0,6.0,82,0.00,,,0.01,Wunderground v.1.15,2013-07-08 02:00:00,
2013-07-07 22:05:00,78.1,72.2,30.11,West,271,2.0,6.0,82,0.00,,,0.01,Wunderground v.1.15,2013-07-08 02:05:00,
2013-07-07 22:10:00,78.0,72.4,30.11,West,277,2.0,6.0,83,0.00,,,0.01,Wunderground v.1.15,2013-07-08 02:10:00,
2013-07-07 22:15:00,77.9,72.7,30.11,West,277,2.0,6.0,84,0.00,,,0.01,Wunderground v.1.15,2013-07-08 02:15:00,
2013-07-07 22:20:00,77.8,72.6,30.11,WNW,292,2.0,2.0,84,0.00,,,0.01,Wunderground v.1.15,2013-07-08 02:20:00,
2013-07-07 22:25:00,77.7,72.5,30.11,WNW,299,2.0,3.0,84,0.00,,,0.01,Wunderground v.1.15,2013-07-08 02:25:00,
2013-07-07 22:30:00,77.7,72.5,30.11,West,270,2.0,-999.0,84,0.00,,,0.01,Wunderground v.1.15,2013-07-08 02:30:00,
2013-07-07 22:35:00,77.7,72.5,30.11,West,270,2.0,-999.0,84,0.00,,,0.01,Wunderground v.1.15,2013-07-08 02:35:00,
2013-07-07 22:40:00,77.7,72.5,30.11,West,270,2.0,-999.0,84,0.00,,,0.01,Wunderground v.1.15,2013-07-08 02:40:00,
2013-07-07 22:45:00,77.5,73.0,30.11,WNW,293,2.0,-999.0,86,0.00,,,0.01,Wunderground v.1.15,2013-07-08 02:45:00,
2013-07-07 22:50:00,77.5,73.0,30.11,WNW,293,2.0,-999.0,86,0.00,,,0.01,Wunderground v.1.15,2013-07-08 02:50:00,
2013-07-07 22:55:00,77.5,73.0,30.11,WNW,293,2.0,-999.0,86,0.00,,,0.01,Wunderground v.1.15,2013-07-08 02:55:00,
2013-07-07 23:00:00,77.5,73.0,30.11,WNW,293,2.0,-999.0,86,0.00,,,0.01,Wunderground v.1.15,2013-07-08 03:00:00,
2013-07-07 23:05:00,77.5,73.0,30.11,WNW,293,2.0,-999.0,86,0.00,,,0.01,Wunderground v.1.15,2013-07-08 03:05:00,
2013-07-07 23:10:00,77.5,73.0,30.11,WNW,293,2.0,-999.0,86,0.00,,,0.01,Wunderground v.1.15,2013-07-08 03:10:00,
2013-07-07 23:15:00,76.9,72.4,30.11,West,270,2.0,-999.0,86,0.00,,,0.01,Wunderground v.1.15,2013-07-08 03:15:00,
2013-07-07 23:20:00,76.9,72.4,30.11,West,270,2.0,-999.0,86,0.00,,,0.01,Wunderground v.1.15,2013-07-08 03:20:00,
2013-07-07 23:25:00,76.9,72.4,30.11,West,270,2.0,-999.0,86,0.00,,,0.01,Wunderground v.1.15,2013-07-08 03:25:00,
2013-07-07 23:30:00,76.9,72.4,30.11,West,270,2.0,-999.0,86,0.00,,,0.01,Wunderground v.1.15,2013-07-08 03:30:00,
2013-07-07 23:35:00,76.9,72.4,30.11,West,270,2.0,-999.0,86,0.00,,,0.01,Wunderground v.1.15,2013-07-08 03:35:00,
2013-07-07 23:40:00,76.9,72.4,30.11,West,270,2.0,-999.0,86,0.00,,,0.01,Wunderground v.1.15,2013-07-08 03:40:00,
2013-07-07 23:45:00,76.5,72.7,30.12,West,270,2.0,-999.0,88,0.00,,,0.01,Wunderground v.1.15,2013-07-08 03:45:00,
2013-07-07 23:50:00,76.5,72.7,30.12,West,270,2.0,-999.0,88,0.00,,,0.01,Wunderground v.1.15,2013-07-08 03:50:00,
2013-07-07 23:55:00,76.5,72.7,30.12,West,270,2.0,-999.0,88,0.00,,,0.01,Wunderground v.1.15,2013-07-08 03:55:00,